Latest Coastal Weather Observations for Willis Island

IDQ60701

Issued at 7:22 pm EST Friday 14 August 2020 (issued every 10 minutes, with the page automatically refreshed every 10 minutes)

About coastal observations | Map of coastal stations | Coastal observations for QLD | Marine services | Other Formats
Station Details ID: 200283 Name: WILLIS ISLAND Lat: -16.29 Lon: 149.97 Height: 9.29 m
Data from the previous 72 hours. | See also: Recent months at Willis Island
Date/Time
EST
Wind Sea
Height
m
Swell Vis
km
Cloud Weather Temp
°C
Press
hPa
Rain since
9am
mm
Dir  Spd
kts
Gust
kts
Height
m
Period
s
Dir
14/07:00pm ESE 14 16 - - - - - - - 24.2 1014.6 0.0
14/06:30pm ESE 14 17 - - - - - - - 24.1 1014.3 0.0
14/06:00pm ESE 15 17 - - - - - - - 24.1 1013.8 0.0
14/05:30pm ESE 15 17 - - - - - - - 24.4 1013.4 0.0
14/05:00pm ESE 16 19 - - - - - - - 24.5 1013.4 0.0
14/04:30pm E 15 18 - - - - - - - 25.2 1013.2 0.0
14/04:00pm ESE 15 19 - - - - - - - 25.6 1013.1 0.0
14/03:30pm ESE 16 18 - - - - - - - 25.2 1013.0 0.0
14/03:00pm ESE 16 19 - - - - - - - 26.0 1012.7 0.0
14/02:30pm ESE 17 19 - - - - - - - 26.1 1012.9 0.0
14/02:00pm ESE 18 21 - - - - - - - 26.2 1013.2 0.0
14/01:30pm ESE 18 21 - - - - - - - 26.4 1013.4 0.0
14/01:00pm ESE 18 21 - - - - - - - 26.6 1013.7 0.0
14/12:30pm ESE 19 22 - - - - - - - 26.7 1013.9 0.0
14/12:00pm ESE 19 22 - - - - - - - 26.4 1014.3 0.0
14/11:30am ESE 20 23 - - - - - - - 26.6 1014.5 0.0
14/11:00am ESE 21 25 - - - - - - - 26.3 1014.7 0.0
14/10:30am ESE 21 23 - - - - - - - 26.2 1014.8 0.0
14/10:00am ESE 20 24 - - - - - - - 26.1 1015.4 0.0
14/09:30am ESE 21 24 - - - - - - - 25.8 1015.6 0.0
14/09:00am ESE 20 23 - - - - - - - 25.3 1015.7 0.0
14/08:30am ESE 19 23 - - - - - - - 24.9 1015.6 0.0
14/08:00am ESE 20 23 - - - - - - - 24.9 1015.5 0.0
14/07:30am ESE 20 24 - - - - - - - 24.0 1015.1 0.0
14/07:00am ESE 20 23 - - - - - - - 23.8 1014.8 0.0
14/06:30am ESE 19 22 - - - - - - - 23.8 1014.7 0.0
14/06:00am ESE 20 24 - - - - - - - 23.6 1014.5 0.0
14/05:30am ESE 20 24 - - - - - - - 23.7 1014.2 0.0
14/05:00am ESE 19 23 - - - - - - - 23.5 1013.9 0.0
14/04:30am ESE 19 23 - - - - - - - 23.6 1013.9 0.0
14/04:00am ESE 17 25 - - - - - - - 23.7 1013.9 0.0
14/03:30am ESE 19 23 - - - - - - - 23.3 1013.9 0.0
14/03:00am ESE 18 22 - - - - - - - 23.3 1014.1 0.0
14/02:30am ESE 19 23 - - - - - - - 23.4 1014.2 0.0
14/02:00am ESE 18 22 - - - - - - - 23.3 1014.4 0.0
14/01:30am ESE 17 21 - - - - - - - 23.2 1014.6 0.0
14/01:00am SE 18 21 - - - - - - - 23.4 1014.7 0.0
14/12:30am SE 17 21 - - - - - - - 23.3 1014.9 0.0
14/12:00am SE 17 21 - - - - - - - 23.2 1015.2 0.0
 
Date/Time
EST
Wind Sea
Height
m
Swell Vis
km
Cloud Weather Temp
°C
Press
hPa
Rain since
9am
mm
Dir  Spd
kts
Gust
kts
Height
m
Period
s
Dir
13/11:30pm ESE 16 19 - - - - - - - 23.2 1015.2 0.0
13/11:00pm ESE 15 17 - - - - - - - 23.2 1015.4 0.0
13/10:30pm ESE 15 19 - - - - - - - 23.2 1015.6 0.0
13/10:00pm ESE 14 17 - - - - - - - 23.2 1015.6 0.0
13/09:30pm ESE 14 18 - - - - - - - 23.3 1015.6 0.0
13/09:00pm ESE 13 16 - - - - - - - 23.3 1015.7 0.0
13/08:30pm ESE 13 16 - - - - - - - 23.3 1015.5 0.0
13/08:00pm ESE 14 16 - - - - - - - 23.6 1015.2 0.0
13/07:30pm ESE 14 16 - - - - - - - 23.5 1014.9 0.0
13/07:00pm ESE 14 17 - - - - - - - 23.5 1014.6 0.0
13/06:30pm ESE 14 16 - - - - - - - 23.5 1014.4 0.0
13/06:00pm ESE 14 17 - - - - - - - 23.7 1014.2 0.0
13/05:30pm ESE 13 17 - - - - - - - 23.9 1014.1 0.0
13/05:00pm ESE 14 18 - - - - - - - 24.4 1014.1 0.0
13/04:30pm ESE 14 17 - - - - - - - 24.8 1014.1 0.0
13/04:00pm ESE 14 17 - - - - - - - 25.5 1014.0 0.0
13/03:30pm ESE 14 18 - - - - - - - 25.7 1014.0 0.0
13/03:00pm ESE 15 17 - - - - - - - 25.5 1014.2 0.0
13/02:30pm ESE 15 18 - - - - - - - 25.6 1014.3 0.0
13/02:00pm ESE 15 19 - - - - - - - 25.6 1014.6 0.0
13/01:30pm ESE 16 20 - - - - - - - 26.3 1015.1 0.0
13/01:00pm ESE 16 20 - - - - - - - 25.6 1015.4 0.0
13/12:30pm ESE 16 20 - - - - - - - 26.2 1015.7 0.0
13/12:00pm ESE 16 20 - - - - - - - 26.6 1015.9 0.0
13/11:30am ESE 17 21 - - - - - - - 26.8 1016.3 0.0
13/11:00am ESE 17 20 - - - - - - - 25.5 1016.5 0.0
13/10:30am ESE 17 19 - - - - - - - 25.9 1016.8 0.0
13/10:00am ESE 16 20 - - - - - - - 24.9 1017.2 0.0
13/09:30am ESE 16 19 - - - - - - - 25.5 1017.2 0.0
13/09:00am ESE 17 19 - - - - - - - 25.0 1017.0 0.0
13/08:30am ESE 16 19 - - - - - - - 25.0 1016.9 0.0
13/08:00am ESE 16 18 - - - - - - - 24.4 1016.6 0.0
13/07:30am SE 16 19 - - - - - - - 24.0 1016.3 0.0
13/07:00am SE 16 19 - - - - - - - 23.5 1016.0 0.0
13/06:30am SE 16 19 - - - - - - - 23.0 1015.7 0.0
13/06:00am ESE 16 20 - - - - - - - 23.2 1015.4 0.0
13/05:30am ESE 15 18 - - - - - - - 23.2 1015.1 0.0
13/05:00am ESE 14 16 - - - - - - - 23.2 1015.0 0.0
13/04:30am ESE 14 17 - - - - - - - 23.1 1015.0 0.0
13/04:00am ESE 14 16 - - - - - - - 23.0 1015.0 0.0
13/03:30am ESE 13 17 - - - - - - - 23.1 1015.0 0.0
13/03:00am ESE 13 16 - - - - - - - 23.2 1015.0 0.0
13/02:30am ESE 13 15 - - - - - - - 23.4 1015.2 0.0
13/02:00am ESE 13 16 - - - - - - - 23.5 1015.4 0.0
13/01:30am ESE 13 16 - - - - - - - 23.3 1015.5 0.0
13/01:00am ESE 14 17 - - - - - - - 23.6 1015.7 0.0
13/12:30am ESE 12 15 - - - - - - - 23.6 1016.0 0.0
13/12:00am ESE 13 15 - - - - - - - 23.5 1016.4 0.0
 
Date/Time
EST
Wind Sea
Height
m
Swell Vis
km
Cloud Weather Temp
°C
Press
hPa
Rain since
9am
mm
Dir  Spd
kts
Gust
kts
Height
m
Period
s
Dir
12/11:30pm ESE 13 15 - - - - - - - 23.6 1016.5 0.0
12/11:00pm ESE 13 15 - - - - - - - 23.6 1016.6 0.0
12/10:30pm ESE 13 14 - - - - - - - 23.7 1016.7 0.0
12/10:00pm ESE 13 16 - - - - - - - 23.8 1016.5 0.0
12/09:30pm ESE 13 16 - - - - - - - 23.7 1016.7 0.0
12/09:00pm ESE 13 16 - - - - - - - 23.9 1016.6 0.0
12/08:30pm ESE 13 15 - - - - - - - 23.8 1016.4 0.0
12/08:00pm ESE 13 16 - - - - - - - 23.8 1016.2 0.0
12/07:30pm ESE 13 15 - - - - - - - 23.9 1016.1 0.0
12/07:00pm ESE 13 15 - - - - - - - 23.9 1015.9 0.0
12/06:30pm ESE 13 15 - - - - - - - 24.0 1015.7 0.0
12/06:00pm ESE 11 13 - - - - - - - 24.1 1015.5 0.0
12/05:30pm ESE 12 13 - - - - - - - 24.2 1015.3 0.0
12/05:00pm ESE 11 14 - - - - - - - 24.9 1015.1 0.0
12/04:30pm ESE 11 13 - - - - - - - 25.2 1015.0 0.0
12/04:00pm ESE 11 14 - - - - - - - 26.0 1014.9 0.0
12/03:30pm ESE 12 14 - - - - - - - 26.2 1014.9 0.0
12/03:00pm ESE 11 13 - - - - - - - 26.9 1014.9 0.0
12/02:30pm ESE 10 13 - - - - - - - 26.8 1014.8 0.0
12/02:00pm ESE 10 12 - - - - - - - 27.4 1015.2 0.0
12/01:30pm ESE 10 13 - - - - - - - 27.7 1015.6 0.0
12/01:00pm ESE 11 14 - - - - - - - 26.8 1016.0 0.0
12/12:30pm ESE 10 13 - - - - - - - 27.0 1016.4 0.0
12/12:00pm ESE 11 14 - - - - - - - 26.9 1016.9 0.0
12/11:30am ESE 12 14 - - - - - - - 26.9 1017.5 0.0
12/11:00am ESE 12 13 - - - - - - - 26.1 1017.8 0.0
12/10:30am E 11 14 - - - - - - - 27.6 1018.0 0.0
12/10:00am E 10 12 - - - - - - - 26.5 1018.2 0.0
12/09:30am E 9 11 - - - - - - - 26.5 1018.2 0.0
12/09:00am E 9 11 - - - - - - - 26.1 1018.1 0.0
12/08:30am E 11 12 - - - - - - - 25.9 1017.7 0.0
12/08:00am E 9 11 - - - - - - - 25.6 1017.3 0.0
12/07:30am E 10 11 - - - - - - - 25.1 1017.0 0.0
12/07:00am E 11 13 - - - - - - - 24.5 1016.6 0.0
12/06:30am E 12 14 - - - - - - - 23.9 1016.3 0.0
12/06:00am E 12 13 - - - - - - - 23.8 1015.9 0.0
12/05:30am E 13 15 - - - - - - - 23.9 1015.5 0.0
12/05:00am E 13 14 - - - - - - - 23.7 1015.4 0.0
12/04:30am E 13 14 - - - - - - - 23.8 1015.3 0.0
12/04:00am E 12 15 - - - - - - - 23.7 1015.4 0.0
12/03:30am E 12 14 - - - - - - - 23.8 1015.4 0.0
12/03:00am E 12 15 - - - - - - - 23.7 1015.5 0.0
12/02:30am E 13 15 - - - - - - - 23.9 1015.8 0.0
12/02:00am E 13 15 - - - - - - - 23.7 1016.0 0.0
12/01:30am E 12 14 - - - - - - - 23.8 1016.3 0.0
12/01:00am E 13 14 - - - - - - - 23.9 1016.5 0.0
12/12:30am ESE 13 15 - - - - - - - 24.0 1016.9 0.0
12/12:00am ESE 13 15 - - - - - - - 24.1 1017.1 0.0
 
Date/Time
EST
Wind Sea
Height
m
Swell Vis
km
Cloud Weather Temp
°C
Press
hPa
Rain since
9am
mm
Dir  Spd
kts
Gust
kts
Height
m
Period
s
Dir
11/11:30pm ESE 12 15 - - - - - - - 24.2 1017.2 0.0
11/11:00pm ESE 13 15 - - - - - - - 23.9 1017.4 0.0
11/10:30pm ESE 14 16 - - - - - - - 23.9 1017.3 0.0
11/10:00pm ESE 13 16 - - - - - - - 23.9 1017.5 0.0
11/09:30pm ESE 14 17 - - - - - - - 23.9 1017.4 0.0
11/09:00pm ESE 14 17 - - - - - - - 24.0 1017.3 0.0
11/08:30pm E 15 17 - - - - - - - 24.0 1016.9 0.0
11/08:00pm ESE 15 18 - - - - - - - 24.0 1016.4 0.0
11/07:30pm ESE 14 16 - - - - - - - 24.1 1016.3 0.0

Other formats

Comma delimited format used in spreadsheet applications
http://www.bom.gov.au/fwo/IDQ60701/IDQ60701.94299.axf

JavaScript Object Notation format (JSON) in row-major order
http://www.bom.gov.au/fwo/IDQ60701/IDQ60701.94299.json

Data quality

Most of these data are generated automatically and are frequently updated. Quality checks on data are not normally performed. It is possible for incorrect values to appear. Refer to information at About Latest Weather Observations and please check the disclaimer before using these data.